Weather reports worldwide

Advertisment
Vlissingen, Netherlands (6310): temperature & dewpoint: 07.07.2020 09:00:00 - 13.07.2020 09:00:00 (CEST)Vlissingen, Netherlands (6310): temperature 5cm: 07.07.2020 09:00:00 - 13.07.2020 09:00:00 (CEST)Vlissingen, Netherlands (6310): wind speed & gusts: 07.07.2020 09:00:00 - 13.07.2020 09:00:00 (CEST)Vlissingen, Netherlands (6310): wind direction: 07.07.2020 09:00:00 - 13.07.2020 09:00:00 (CEST)Vlissingen, Netherlands (6310): reduced air pressure: 07.07.2020 09:00:00 - 13.07.2020 09:00:00 (CEST)Vlissingen, Netherlands (6310): visibility: 07.07.2020 09:00:00 - 13.07.2020 09:00:00 (CEST)Vlissingen, Netherlands (6310): precipitation: 07.07.2020 09:00:00 - 13.07.2020 09:00:00 (CEST)
Date & Time tt [°C] td [°C] tt 5cm [°C] ff [km/h] ff [kn] fx [km/h] fx [kn] dd ppp [hPa] vv [km] rr [mm]
13.07.2020 09:00:00 17,4 12,5 19,4 4 2 7 4 SE 1025,4 10 0,0
13.07.2020 08:00:00 16,2 12,4 17,0 4 2 7 4 ENE 1025,3 10 0,0
13.07.2020 07:00:00 14,6 11,0 13,7 8 4 11 6 ENE 1025,4 10 0,0
13.07.2020 06:00:00 13,4 10,7 12,1 9 5 11 6 NE 1025,3 10 0,0
13.07.2020 05:00:00 13,9 10,7 12,1 7 4 11 6 NE 1025,7 50 0,0
13.07.2020 04:00:00 14,2 10,8 12,6 9 5 14 8 ENE 1026,2 10 0,0
13.07.2020 03:00:00 14,7 10,9 13,1 11 6 14 8 NE 1026,6 10 0,0
13.07.2020 02:00:00 14,9 10,4 13,3 9 5 14 8 NNE 1026,9 10 0,0
13.07.2020 01:00:00 15,2 10,1 13,9 13 7 18 10 NNE 1027,1 10 0,0
13.07.2020 00:00:00 15,6 10,1 14,4 13 7 18 10 NNE 1027,1 10 0,0
12.07.2020 23:00:00 16,1 9,3 14,7 13 7 18 10 N 1027,2 10 0,0
12.07.2020 22:00:00 16,7 8,9 15,3 15 8 22 12 NNE 1027,1 10 0,0
12.07.2020 21:00:00 17,3 9,3 16,4 16 9 25 14 N 1027,1 10 0,0
12.07.2020 20:00:00 18,1 9,4 17,6 16 9 25 14 N 1027,4 10 0,0
12.07.2020 19:00:00 18,8 9,2 19,3 18 10 25 14 N 1027,6 10 0,0
12.07.2020 18:00:00 18,8 9,9 20,0 15 8 25 14 N 1028,1 10 0,0
12.07.2020 17:00:00 19,0 9,9 19,8 16 9 25 14 N 1028,2 10 0,0
12.07.2020 16:00:00 19,2 10,1 19,7 11 6 25 14 NNE 1028,6 10 0,0
12.07.2020 15:00:00 18,7 10,6 18,9 13 7 22 12 NNE 1028,8 10 0,0
12.07.2020 14:00:00 18,9 9,9 19,4 9 5 22 12 - 1029,0 10 0,0
12.07.2020 13:00:00 18,4 9,6 20,5 9 5 14 8 ESE 1029,4 10 0,0
12.07.2020 12:00:00 17,3 9,3 18,1 9 5 14 8 ESE 1029,5 10 0,0
12.07.2020 11:00:00 17,7 10,3 18,8 5 3 18 10 E 1029,4 10 0,0
12.07.2020 10:00:00 16,9 10,7 17,0 9 5 14 8 ENE 1029,3 10 0,0
12.07.2020 09:00:00 15,8 11,0 17,1 11 6 14 8 NE 1029,1 10 0,0
12.07.2020 08:00:00 15,4 11,5 16,7 5 3 7 4 ENE 1028,8 10 0,0
12.07.2020 07:00:00 14,3 10,9 12,3 4 2 4 2 NNW 1028,3 10 0,0
12.07.2020 06:00:00 12,5 10,3 8,9 4 2 4 2 NW 1028,1 10 0,0
12.07.2020 05:00:00 12,6 10,4 9,2 4 2 7 4 NNW 1027,9 10 0,0
12.07.2020 04:00:00 12,9 10,4 10,8 5 3 7 4 NNE 1027,8 10 0,0
12.07.2020 03:00:00 13,4 10,4 11,8 11 6 14 8 N 1028,0 10 0,0
12.07.2020 02:00:00 13,5 10,1 12,0 8 4 11 6 N 1028,1 10 0,0
12.07.2020 01:00:00 13,7 10,2 12,4 8 4 11 6 NNW 1028,2 10 0,0
12.07.2020 00:00:00 14,1 10,4 12,9 11 6 14 8 N 1028,1 10 0,0
11.07.2020 23:00:00 14,4 10,5 13,4 11 6 14 8 NNW 1027,9 10 0,0
11.07.2020 22:00:00 15,2 10,7 14,2 11 6 18 10 NNW 1027,3 10 0,0
11.07.2020 21:00:00 16,4 10,6 15,9 16 9 22 12 NNW 1027,1 10 0,0
11.07.2020 20:00:00 16,6 10,7 17,1 15 8 25 14 N 1027,0 10 0,0
11.07.2020 19:00:00 17,1 10,9 17,5 16 9 29 16 NW 1026,9 10 0,0
11.07.2020 18:00:00 16,4 10,3 17,3 16 9 29 16 NW 1026,8 10 0,0
11.07.2020 17:00:00 17,1 11,2 19,4 22 12 32 18 W 1026,5 38 0,0
11.07.2020 16:00:00 17,0 11,0 19,1 22 12 36 19 WNW 1026,3 10 0,0
11.07.2020 15:00:00 17,1 11,6 19,3 25 14 36 19 W 1026,3 16 0,0
11.07.2020 14:00:00 16,8 11,3 19,1 26 14 32 18 W 1026,0 10 0,0
11.07.2020 13:00:00 17,4 12,1 19,6 22 12 32 18 W 1025,6 10 0,0
11.07.2020 12:00:00 17,0 11,9 18,8 21 11 29 16 W 1025,2 10 0,0
11.07.2020 11:00:00 16,2 11,6 16,7 21 11 29 16 W 1024,7 10 0,0
11.07.2020 10:00:00 15,7 11,4 15,9 18 10 25 14 W 1024,2 10 0,0
11.07.2020 09:00:00 15,6 11,5 14,8 15 8 18 10 W 1023,8 10 0,0
11.07.2020 08:00:00 15,2 12,3 14,9 7 4 14 8 SW 1023,4 35 0,2
11.07.2020 07:00:00 13,4 11,8 13,0 21 11 29 16 WSW 1022,9 10 1,0
11.07.2020 06:00:00 13,9 11,9 13,0 11 6 14 8 SW 1022,7 20 0,0
11.07.2020 05:00:00 13,9 11,8 12,5 13 7 18 10 SW 1022,3 10 0,0
11.07.2020 04:00:00 13,7 10,3 10,4 2 1 4 2 WNW 1022,1 10 0,0
11.07.2020 03:00:00 13,8 9,9 11,0 4 2 7 4 NNW 1022,0 45 0,0
11.07.2020 02:00:00 14,1 10,1 10,8 5 3 7 4 NW 1021,8 10 0,0
11.07.2020 01:00:00 13,8 9,9 10,5 4 2 7 4 NNW 1021,6 10 0,0
11.07.2020 00:00:00 14,2 10,0 11,8 5 3 7 4 NNW 1021,2 10 0,0
10.07.2020 23:00:00 14,2 9,8 12,0 5 3 7 4 NNW 1020,8 10 0,0
10.07.2020 22:00:00 14,8 9,6 13,6 8 4 11 6 NNW 1020,2 10 0,0
10.07.2020 21:00:00 15,1 9,3 14,1 11 6 18 10 NW 1019,8 10 0,0
10.07.2020 20:00:00 16,4 9,2 17,0 15 8 25 14 NW 1019,5 10 0,0
10.07.2020 19:00:00 16,2 9,2 16,7 18 10 29 16 NW 1019,2 44 0,0
10.07.2020 18:00:00 16,9 8,8 19,0 22 12 32 18 W 1018,8 30 0,0
10.07.2020 17:00:00 17,8 9,5 18,8 15 8 29 16 WNW 1018,2 10 0,0
10.07.2020 16:00:00 16,3 9,7 17,2 18 10 29 16 NNW 1017,9 10 0,0
10.07.2020 15:00:00 16,7 9,9 17,7 22 12 40 21 NW 1017,3 31 0,0
10.07.2020 14:00:00 16,1 10,1 16,7 24 13 36 19 NNW 1016,6 10 0,0
10.07.2020 13:00:00 15,6 11,3 15,7 25 14 40 21 NNW 1016,0 20 0,0
10.07.2020 12:00:00 15,0 13,0 15,9 28 15 - - NNW 1014,9 10 -
10.07.2020 11:00:00 16,2 12,3 16,4 21 11 40 21 NW 1013,6 10 0,0
10.07.2020 10:00:00 16,0 12,3 15,9 26 14 36 19 NNW 1012,6 10 0,0
10.07.2020 09:00:00 14,9 13,8 14,7 18 10 29 16 NNW 1011,6 7 0,1
10.07.2020 08:00:00 15,1 13,6 14,7 21 11 32 18 NNW 1010,4 10 0,0
10.07.2020 07:00:00 15,3 14,3 15,1 21 11 32 18 NNW 1009,6 10 0,0
10.07.2020 06:00:00 16,1 15,2 15,6 18 10 32 18 WNW 1008,8 10 0,0
10.07.2020 05:00:00 16,4 15,9 16,0 34 18 47 25 SW 1008,3 2,5 1,1
10.07.2020 04:00:00 16,2 15,6 16,0 29 16 36 19 SW 1008,7 2,8 0,3
10.07.2020 03:00:00 16,7 15,1 16,4 29 16 36 19 SW 1009,2 11 0,0
10.07.2020 02:00:00 16,9 15,1 16,5 26 14 32 18 SW 1009,4 10 0,0
10.07.2020 01:00:00 17,1 14,9 16,7 34 18 40 21 SW 1009,8 10 0,0
10.07.2020 00:00:00 17,3 15,3 16,6 25 14 29 16 SW 1010,1 29 0,0
09.07.2020 23:00:00 17,7 15,3 16,9 22 12 32 18 SW 1010,4 10 0,0
09.07.2020 22:00:00 17,9 15,9 17,5 24 13 36 19 WSW 1010,5 10 0,0
09.07.2020 21:00:00 18,6 15,9 18,0 28 15 36 19 SW 1010,9 10 0,0
09.07.2020 20:00:00 17,8 15,8 17,7 37 20 43 23 WSW 1011,4 10 0,0
09.07.2020 19:00:00 17,8 16,5 17,4 29 16 40 21 W 1011,8 10 0,0
09.07.2020 18:00:00 17,6 16,4 17,6 29 16 40 21 WSW 1012,2 8 0,0
09.07.2020 17:00:00 17,8 15,7 17,8 35 19 47 25 W 1012,4 10 0,0
09.07.2020 16:00:00 19,0 16,1 19,5 34 18 43 23 WSW 1012,8 10 0,0
09.07.2020 15:00:00 18,2 15,7 18,2 32 18 43 23 WSW 1012,7 17 0,0
09.07.2020 14:00:00 17,9 16,2 17,8 35 19 43 23 WSW 1012,9 10 0,0
09.07.2020 13:00:00 17,7 16,6 17,6 31 17 43 23 SW 1013,0 6 0,2
09.07.2020 12:00:00 18,6 15,7 18,3 34 18 43 23 WSW 1012,7 10 0,1
09.07.2020 11:00:00 18,0 15,3 18,3 32 18 40 21 SW 1012,8 18 0,1
09.07.2020 10:00:00 17,6 15,5 17,6 31 17 43 23 SW 1012,8 10 0,0
09.07.2020 09:00:00 16,4 15,3 16,3 35 19 43 23 SW 1013,0 10 0,0
09.07.2020 08:00:00 16,4 15,3 16,1 29 16 40 21 SW 1013,1 10 0,0
09.07.2020 07:00:00 16,2 15,3 16,0 31 17 43 23 SW 1013,1 10 0,0
09.07.2020 06:00:00 16,4 15,5 16,0 35 19 43 23 SW 1013,4 8 0,0
09.07.2020 05:00:00 16,6 15,7 16,2 36 19 43 23 SW 1013,7 9 0,0
09.07.2020 04:00:00 16,5 15,8 16,2 29 16 40 21 SW 1013,6 5 0,0
09.07.2020 03:00:00 16,5 15,8 16,2 28 15 36 19 SW 1014,0 5 0,1
09.07.2020 02:00:00 16,5 16,0 16,3 25 14 36 19 SW 1014,3 3,9 0,1
09.07.2020 01:00:00 16,8 16,2 16,4 21 11 25 14 SW 1014,6 6 0,1
09.07.2020 00:00:00 16,7 16,2 16,5 21 11 25 14 SW 1015,1 6 0,4
08.07.2020 23:00:00 16,8 16,3 16,6 18 10 25 14 SW 1015,3 5 0,8
08.07.2020 22:00:00 16,9 16,2 16,7 16 9 25 14 W 1015,1 3,2 0,4
08.07.2020 21:00:00 17,3 15,6 17,0 15 8 22 12 W 1015,3 10 0,0
08.07.2020 20:00:00 17,3 15,6 17,2 16 9 22 12 WSW 1015,3 10 0,0
08.07.2020 19:00:00 17,3 15,5 17,5 18 10 22 12 W 1015,6 25 0,0
08.07.2020 18:00:00 17,7 15,6 18,0 18 10 25 14 W 1015,5 10 0,0
08.07.2020 17:00:00 17,4 15,2 18,1 21 11 - - W 1015,8 10 0,0
08.07.2020 16:00:00 17,6 15,2 18,2 21 11 29 16 W 1015,7 10 0,0
08.07.2020 15:00:00 17,3 15,4 17,8 21 11 29 16 W 1015,4 10 0,0
08.07.2020 14:00:00 17,2 14,9 17,6 21 11 29 16 W 1015,2 10 0,0
08.07.2020 13:00:00 16,6 14,6 16,5 21 11 25 14 WNW 1015,3 10 0,0
08.07.2020 12:00:00 16,7 14,8 16,7 22 12 29 16 W 1014,9 34 0,1
08.07.2020 11:00:00 16,0 15,4 16,0 21 11 22 12 SW 1014,5 10 0,4
08.07.2020 10:00:00 15,3 14,7 15,4 18 10 25 14 SSW 1014,6 7 0,7
08.07.2020 09:00:00 14,8 14,2 14,7 21 11 29 16 SSW 1014,6 5 0,4
08.07.2020 08:00:00 14,4 13,8 14,3 22 12 25 14 SSW 1014,6 10 0,1
08.07.2020 07:00:00 14,1 13,5 14,0 22 12 29 16 SSW 1014,6 6 0,5
08.07.2020 06:00:00 14,1 13,4 13,8 22 12 29 16 SSW 1014,9 6 0,6
08.07.2020 05:00:00 13,9 13,2 13,8 18 10 25 14 SSW 1015,1 7 0,8
08.07.2020 04:00:00 13,9 13,1 13,6 21 11 25 14 SW 1015,8 5 2,3
08.07.2020 03:00:00 13,9 12,1 13,3 14 8 22 12 WSW 1016,5 10 1,2
08.07.2020 02:00:00 14,8 12,4 14,3 5 3 22 12 SW 1016,8 10 0,4
08.07.2020 01:00:00 15,1 11,9 14,7 11 6 14 8 NNW 1017,1 10 0,0
08.07.2020 00:00:00 15,8 12,1 15,5 28 15 43 23 W 1017,4 10 0,0
07.07.2020 23:00:00 16,6 11,7 16,1 28 15 36 19 SW 1017,5 10 0,0
07.07.2020 22:00:00 17,2 10,9 16,6 37 20 47 25 WSW 1017,4 10 0,0
07.07.2020 21:00:00 17,1 10,1 16,6 29 16 40 21 W 1017,7 10 0,0
07.07.2020 20:00:00 17,2 10,2 16,7 22 12 29 16 W 1018,2 10 0,0
07.07.2020 19:00:00 17,7 10,1 17,7 18 10 29 16 W 1018,4 26 0,0
07.07.2020 18:00:00 18,0 8,6 18,3 18 10 25 14 W 1018,8 10 0,0
07.07.2020 17:00:00 18,5 9,1 19,8 21 11 29 16 W 1019,4 10 0,0
07.07.2020 16:00:00 18,5 9,5 20,9 21 11 29 16 W 1020,0 10 0,0
07.07.2020 15:00:00 18,0 11,4 20,7 22 12 29 16 W 1020,5 10 0,0
07.07.2020 14:00:00 17,6 11,2 20,3 24 13 32 18 WSW 1020,9 10 0,0
07.07.2020 13:00:00 17,5 10,7 19,8 22 12 32 18 W 1021,0 10 0,0
07.07.2020 12:00:00 17,1 10,2 18,7 16 9 25 14 W 1021,2 10 0,0
07.07.2020 11:00:00 16,9 9,1 18,7 18 10 29 16 W 1021,2 10 0,0
07.07.2020 10:00:00 16,2 8,4 16,9 21 11 32 18 WNW 1021,2 10 0,0
07.07.2020 09:00:00 16,0 9,0 16,6 21 11 32 18 WNW 1020,8 10 0,0

tt = temperature
td = dewpoint
tt 5cm = temperature 5cm
ff = wind speed
fx = gusts
dd = wind direction
ppp = reduced air pressure
vv = visibility
rr = precipitation

Next stations